FW8106 Weather Reports


time (UTC)temp
F
wind
direction
speed
knots
gust
knots
rain 1hr
in
rain 24hr
in
rain mn
in
humidity
%
barometer
mb
20260505023054 70 0 0.0 2.6 0.00 0.00 0.00 79 1017.3
20260505021555 71 0 0.0 2.6 0.00 0.00 0.00 78 1017.3
20260505014556 73 0 0.0 3.5 0.00 0.00 0.00 75 1016.8
20260505013102 73 0 0.0 0.0 0.00 0.00 0.00 75 1016.4
20260505011555 74 152 0.9 3.5 0.00 0.00 0.00 74 1016.3
20260505010111 74 0 0.9 7.0 0.00 0.00 0.00 72 1016.0
20260505004555 75 70 1.7 5.2 0.00 0.00 0.00 72 1015.8
20260505003100 76 118 0.9 3.5 0.00 0.00 0.00 71 1015.8
20260505001604 76 80 0.0 4.3 0.00 0.00 0.00 69 1015.7
20260505000058 77 0 0.0 6.1 0.00 0.00 0.00 67 1015.4
20260504234555 78 172 0.0 2.6 0.00 0.00 0.00 66 1015.0
20260504233107 79 0 0.0 2.6 0.00 0.00 0.00 64 1015.1
20260504231558 79 152 1.7 10.4 0.00 0.00 0.00 63 1014.9
20260504230057 80 0 0.9 6.1 0.00 0.00 0.00 61 1014.9
20260504224554 81 0 0.9 3.5 0.00 0.00 0.00 60 1014.7
20260504223056 82 131 0.0 2.6 0.00 0.00 0.00 57 1014.7
20260504221555 83 106 0.0 3.5 0.00 0.00 0.00 54 1014.8
20260504220056 84 121 1.7 8.7 0.00 0.00 0.00 51 1014.8
20260504214556 85 180 0.9 5.2 0.00 0.00 0.00 51 1014.7
20260504213055 85 134 0.9 3.5 0.00 0.00 0.00 47 1014.8
20260504211552 85 79 0.9 6.1 0.00 0.00 0.00 49 1015.0
20260504210108 86 148 0.0 3.5 0.00 0.00 0.00 47 1015.1
20260504204602 85 36 1.7 7.0 0.00 0.00 0.00 48 1015.0
20260504203108 85 136 1.7 6.1 0.00 0.00 0.00 46 1015.1
20260504201555 85 102 0.9 8.7 0.00 0.00 0.00 47 1015.4
20260504200057 85 0 0.0 7.8 0.00 0.00 0.00 50 1015.5
20260504194602 84 150 1.7 7.0 0.00 0.00 0.00 49 1015.7
20260504193053 83 69 1.7 5.2 0.00 0.00 0.00 48 1015.9
20260504191555 83 53 1.7 6.1 0.00 0.00 0.00 48 1016.0
20260504190128 84 335 1.7 7.8 0.00 0.00 0.00 48 1016.1
20260504184556 82 139 2.6 7.0 0.00 0.00 0.00 49 1016.3
20260504183052 83 355 0.9 6.1 0.00 0.00 0.00 50 1016.6
20260504181555 85 360 0.9 4.3 0.00 0.00 0.00 50 1017.1
20260504180054 84 309 0.9 7.0 0.00 0.00 0.00 53 1017.2
20260504174601 83 176 2.6 7.0 0.00 0.00 0.00 52 1017.3
20260504173058 82 63 0.9 4.3 0.00 0.00 0.00 55 1017.5
20260504171553 81 33 1.7 6.1 0.00 0.00 0.00 55 1017.6
20260504081601 63 0 0.0 0.0 0.00 0.00 0.00 89 1017.1
20260504060115 63 0 0.0 0.0 0.00 0.00 0.00 88 1017.3
20260504050117 65 0 0.0 0.0 0.00 0.00 0.00 87 1017.7
20260504044553 65 0 0.0 0.0 0.00 0.00 0.00 87 1018.2
20260504043109 66 0 0.0 0.0 0.00 0.00 0.00 86 1018.5
20260504041555 66 0 0.0 0.0 0.00 0.00 0.00 86 1018.7
20260504040108 66 0 0.0 0.0 0.00 0.00 0.00 86 1018.8
20260504034559 67 0 0.0 0.0 0.00 0.00 0.00 85 1018.8
20260504033059 67 0 0.0 0.0 0.00 0.00 0.00 86 1018.7
20260504031604 68 0 0.0 0.0 0.00 0.00 0.00 85 1018.5
20260504030054 68 0 0.0 0.0 0.00 0.00 0.00 84 1018.4
20260504024557 69 0 0.0 0.0 0.00 0.00 0.00 83 1018.2